This is the latest recevied weather packets stored in our database for station/object DC1NF-6. If no packets are shown the sender has not sent any weather packets the latest 10 day(s).
| Time | Temp. | Humidity | Pressure | Rain* | Wind** | Luminosity | Snow |
|---|---|---|---|---|---|---|---|
| 1777845961 | 15° C | 70% | 1013.8 hPa | 0 mm | - | - | - |
| 1777845357 | 15° C | 70% | 1013.7 hPa | 0 mm | - | - | - |
| 1777844753 | 15.56° C | 68% | 1013.7 hPa | 0 mm | - | - | - |
| 1777844149 | 16.11° C | 65% | 1013.5 hPa | 0 mm | - | - | - |
| 1777843545 | 15° C | 65% | 1013.4 hPa | 0 mm | - | - | - |
| 1777842941 | 15° C | 71% | 1013.4 hPa | 0 mm | - | - | - |
| 1777842337 | 15.56° C | 70% | 1013.3 hPa | 0 mm | - | - | - |
| 1777841734 | 15.56° C | 67% | 1013.1 hPa | 0 mm | - | - | - |
| 1777841130 | 15.56° C | 65% | 1013 hPa | 0 mm | - | - | - |
| 1777840526 | 16.11° C | 64% | 1012.8 hPa | 0 mm | - | - | - |
| 1777839923 | 16.11° C | 63% | 1012.8 hPa | 0 mm | - | - | - |
| 1777839319 | 16.67° C | 59% | 1012.8 hPa | 0 mm | - | - | - |
| 1777838715 | 16.67° C | 59% | 1012.7 hPa | 0 mm | - | - | - |
| 1777838172 | 16.67° C | 58% | 1012.7 hPa | 0 mm | - | - | - |
| 1777837573 | 17.22° C | 58% | 1012.7 hPa | 0 mm | - | - | - |
| 1777836964 | 17.22° C | 57% | 1012.7 hPa | 0 mm | - | - | - |
| 1777836361 | 17.78° C | 56% | 1012.7 hPa | 0 mm | - | - | - |
| 1777835758 | 17.78° C | 55% | 1012.5 hPa | 0 mm | - | - | - |
| 1777835153 | 18.33° C | 52% | 1012.5 hPa | 0 mm | - | - | - |
| 1777834550 | 18.33° C | 51% | 1012.5 hPa | 0 mm | - | - | - |
| 1777833946 | 18.33° C | 51% | 1012.5 hPa | 0 mm | - | - | - |
| 1777833342 | 18.33° C | 53% | 1012.4 hPa | 0 mm | - | - | - |
| 1777832739 | 18.89° C | 51% | 1012.2 hPa | 0 mm | - | - | - |
| 1777832135 | 18.89° C | 52% | 1012.2 hPa | 0 mm | - | - | - |
| 1777831531 | 19.44° C | 50% | 1012.1 hPa | 0 mm | - | - | - |
* Rain latest hour (hover to see other rain measurements)
** Current wind speed in m/s (hover to see current wind gust speed)